TimeCDT,TemperatureF,Dew PointF,Humidity,Sea Level PressureIn,VisibilityMPH,Wind Direction,Wind SpeedMPH,Gust SpeedMPH,PrecipitationIn,Events,Conditions,WindDirDegrees,DateUTC
12:53 AM,63.0,59.0,87,30.22,10.0,Calm,Calm,-,N/A,,Clear,0,2014-03-30 05:53:00
1:53 AM,63.0,59.0,87,30.19,10.0,SSE,5.8,-,N/A,,Clear,160,2014-03-30 06:53:00
2:53 AM,64.0,60.1,87,30.17,10.0,SSE,4.6,-,N/A,,Mostly Cloudy,160,2014-03-30 07:53:00
3:53 AM,63.0,60.1,90,30.16,10.0,Calm,Calm,-,N/A,,Clear,0,2014-03-30 08:53:00
4:53 AM,63.0,60.1,90,30.14,10.0,SE,3.5,-,N/A,,Clear,140,2014-03-30 09:53:00
5:53 AM,63.0,60.1,90,30.13,10.0,NE,5.8,-,N/A,,Clear,50,2014-03-30 10:53:00
6:53 AM,62.1,59.0,90,30.15,10.0,Calm,Calm,-,N/A,,Clear,0,2014-03-30 11:53:00
7:53 AM,61.0,59.0,93,30.16,7.0,ESE,3.5,-,N/A,,Clear,120,2014-03-30 12:53:00
8:53 AM,66.0,61.0,84,30.18,10.0,East,8.1,-,N/A,,Clear,80,2014-03-30 13:53:00
9:53 AM,69.1,62.1,78,30.17,10.0,ESE,11.5,-,N/A,,Clear,110,2014-03-30 14:53:00
10:53 AM,73.0,61.0,66,30.18,10.0,ESE,17.3,-,N/A,,Scattered Clouds,120,2014-03-30 15:53:00
11:53 AM,77.0,61.0,58,30.15,10.0,ESE,18.4,25.3,N/A,,Clear,120,2014-03-30 16:53:00
12:53 PM,80.1,60.1,50,30.14,10.0,ESE,17.3,-,N/A,,Clear,120,2014-03-30 17:53:00
1:53 PM,82.0,57.9,44,30.12,10.0,SE,16.1,23.0,N/A,,Partly Cloudy,140,2014-03-30 18:53:00
2:53 PM,82.0,57.0,42,30.08,10.0,SSE,19.6,25.3,N/A,,Clear,150,2014-03-30 19:53:00
3:53 PM,82.0,57.0,42,30.04,10.0,SE,19.6,28.8,N/A,,Clear,140,2014-03-30 20:53:00
4:53 PM,82.0,55.9,41,30.01,10.0,SE,19.6,26.5,N/A,,Clear,130,2014-03-30 21:53:00
5:53 PM,79.0,54.0,42,30.00,10.0,SE,18.4,28.8,N/A,,Clear,130,2014-03-30 22:53:00
6:53 PM,75.9,57.0,52,30.00,10.0,ESE,20.7,26.5,N/A,,Clear,120,2014-03-30 23:53:00
7:53 PM,73.0,57.9,59,30.01,10.0,SE,15.0,24.2,N/A,,Clear,140,2014-03-31 00:53:00
8:53 PM,70.0,60.1,71,30.01,10.0,SE,15.0,-,N/A,,Clear,130,2014-03-31 01:53:00
9:53 PM,68.0,61.0,78,30.03,10.0,SE,12.7,-,N/A,,Clear,140,2014-03-31 02:53:00
10:53 PM,68.0,62.1,81,30.04,10.0,SE,13.8,-,N/A,,Clear,140,2014-03-31 03:53:00
11:53 PM,66.9,62.1,84,30.02,10.0,SE,11.5,-,N/A,,Clear,140,2014-03-31 04:53:00